Location: Étouvelles
(49.5207°N, 3.5808°E)
Time: 07:51:55
(UTC+00:00)

Cosmos 841 Rocket - Pass Details

Date: 03 February 2023
Orbit: 746 x 771 km, 74.0° (Epoch: 24 March)

Event Time Altitude Azimuth Distance (km) Brightness Sun altitude
Rises 18:28:32 0° 337° (NNW) 3,258 7.0 -17.1°
Reaches altitude 10° 18:30:56 10° 339° (NNW) 2,327 6.2 -17.5°
Maximum altitude 18:36:14 75° 65° (ENE) 802 3.4 -18.3°
Drops below altitude 10° 18:41:28 10° 151° (SSE) 2,303 5.7 -19.2°
Enters shadow 18:42:06 - 152° (SSE) 2,546 6.0 -19.3°
